CAPE
0 0 0 0 0 0 0 0 0 0 0 0 0 0 0 0 0 0 0 0 0 0 0 0 0 0 0 0 0 0 0 3 0 0 0 0 0 0 2 9 10 1 0 0
0 0 0 0 0 0 0 0 0 0 0 0 0 0 0 0 0 0 0 0 0 0 0 0 0 0 0 0 0 0 0 0 0 0 0 0 0 0 0 6 6 4 0 3
0 0 0 0 0 0 0 0 0 0 0 0 0 0 0 0 0 0 0 0 0 0 0 0 0 0 0 0 0 1 1 0 0 0 0 0 0 0 0 2 4 0 0 4
0 0 0 0 0 0 0 0 0 0 0 0 0 0 0 0 0 0 0 0 0 0 0 0 0 0 0 0 0 0 0 0 0 0 0 0 0 0 0 0 0 0 2 8
0 0 0 0 0 0 0 0 0 0 0 0 0 0 0 0 0 0 0 0 0 0 0 0 0 0 0 0 0 0 0 0 0 0 0 0 0 0 0 0 0 0 15 39
0 0 0 0 0 0 0 0 0 0 0 0 0 0 0 0 0 0 0 0 0 0 0 0 0 0 0 0 0 0 0 0 0 0 0 0 0 0 0 0 0 0 0 13
0 0 0 0 0 0 0 0 0 0 0 0 0 0 0 0 0 0 0 0 0 0 0 0 0 0 0 0 0 0 0 0 0 0 0 0 0 0 0 0 0 0 0 0
0 0 0 0 0 0 0 0 0 0 0 0 0 0 0 0 0 0 0 0 0 0 0 0 0 0 0 0 0 0 0 0 0 0 0 0 0 0 0 0 0 0 0 0
0 0 0 0 0 0 0 0 0 0 0 0 0 0 0 0 0 0 0 0 0 0 0 0 0 0 0 0 0 0 0 0 0 0 0 0 0 0 0 0 0 0 0 0
0 0 0 0 0 0 0 0 0 0 0 0 0 0 0 0 0 0 0 0 0 0 0 0 0 0 0 0 0 0 0 0 0 0 0 0 5 0 0 0 0 0 0 0
0 0 0 0 0 0 0 0 0 0 0 0 0 0 0 0 0 0 0 0 0 0 0 0 0 0 0 0 0 0 0 0 0 0 0 8 20 8 1 0 0 0 0 0
0 0 0 0 0 0 0 0 0 0 0 0 0 0 0 0 0 0 0 0 0 0 0 0 0 0 0 0 0 0 0 0 0 0 0 2 4 0 0 0 0 0 0 0
0 0 0 0 0 0 0 0 0 0 0 0 0 0 0 0 0 0 0 0 0 0 0 0 0 0 0 0 0 0 0 0 0 0 0 2 0 0 21 0 0 0 0 0
0 0 0 0 0 0 0 0 0 0 0 0 0 0 0 0 0 0 0 0 0 0 0 0 0 0 0 0 0 0 0 0 0 0 0 0 0 0 0 0 0 0 0 0
0 0 0 0 0 0 0 0 0 0 0 0 0 0 0 0 0 0 0 0 0 0 0 0 0 0 0 0 0 0 0 0 0 0 0 0 0 0 2 0 0 0 0 0
0 0 0 0 0 0 0 0 0 0 0 0 0 0 0 0 0 0 0 0 0 0 0 0 0 0 0 0 0 0 0 0 0 0 0 0 0 5 2 0 0 0 0 0
0 0 0 0 0 0 0 0 0 0 0 0 0 0 0 0 0 0 0 0 0 0 0 0 0 0 0 0 0 0 0 0 0 0 0 0 0 0 0 0 0 0 0 0
0 0 0 0 0 0 0 0 0 0 0 0 0 0 0 0 0 0 0 0 0 0 0 0 0 0 0 0 0 0 0 0 0 0 0 0 0 0 0 0 0 0 0 0
0 0 0 0 0 0 0 0 0 0 0 0 0 0 0 0 0 0 0 0 0 0 0 0 0 0 0 0 0 0 0 0 0 0 0 0 0 0 0 0 0 0 0 0
0 0 0 0 0 0 0 0 0 0 0 0 0 0 0 0 0 4 0 0 0 0 0 0 0 0 0 0 0 0 0 0 0 0 0 0 0 0 0 0 0 0 0 0
1 2 0 0 0 0 0 0 0 0 0 0 0 0 0 0 0 8 0 0 0 0 0 0 0 0 0 0 0 0 0 0 0 0 0 0 0 0 0 0 0 0 0 0
24 6 0 0 0 13 0 0 2 0 0 0 0 0 0 0 0 0 0 0 0 0 0 0 0 0 0 0 0 0 0 0 0 0 0 0 0 0 0 0 0 0 0 0
15 45 28 3 1 0 0 0 0 0 0 0 0 0 0 0 0 0 0 0 0 0 0 0 0 0 0 0 0 0 0 0 0 0 0 0 0 0 0 0 0 0 0 0
16 14 5 0 0 0 0 0 0 0 0 0 0 0 0 0 0 0 0 0 0 0 0 0 0 0 0 0 0 0 0 0 0 0 0 0 0 0 10 3 0 0 0 0
19 26 4 0 0 0 0 0 0 0 0 0 0 0 0 0 0 0 0 0 0 0 0 0 0 0 0 0 0 0 0 0 0 0 0 0 0 0 1 19 4 0 0 0
49 10 4 3 0 0 0 0 0 0 0 0 0 0 0 0 0 0 0 0 0 3 0 0 0 0 0 0 0 0 0 0 0 0 0 0 0 0 0 0 0 0 0 0
CIN
-0 -0 -0 -0 -0 -0 -0 -0 -0 -0 -0 -0 -0 -0 -0 -0 -0 -0 -0 -0 -0 -0 -0 -0 -0 -0 -0 -0 -0 -0 -0 -555 -0 -0 -0 -0 -0 -0 -51 -101 -99 -102 -0 -0
-0 -0 -0 -0 -0 -0 -0 -0 -0 -0 -0 -0 -0 -0 -0 -0 -0 -0 -0 -0 -0 -0 -0 -0 -0 -0 -0 -0 -0 -0 -0 -0 -0 -0 -0 -0 -0 -0 -17 -121 -88 -103 -12 -69
-0 -0 -0 -0 -0 -0 -0 -0 -0 -0 -0 -0 -0 -0 -0 -0 -0 -0 -0 -0 -0 -0 -0 -0 -0 -0 -0 -0 -0 -300 -181 -0 -0 -0 -0 -0 -0 -0 -0 -44 -108 -0 -0 -32
-0 -0 -0 -0 -0 -0 -0 -0 -0 -0 -0 -0 -0 -0 -0 -0 -0 -0 -0 -0 -0 -0 -0 -0 -0 -0 -0 -0 -0 -0 -0 -0 -0 -0 -0 -0 -0 -0 -0 -0 -0 -0 -86 -32
-0 -0 -0 -0 -0 -0 -0 -0 -0 -0 -0 -0 -0 -0 -0 -0 -0 -0 -0 -0 -0 -0 -0 -0 -0 -0 -0 -0 -0 -0 -0 -15 -0 -0 -0 -0 -0 -0 -0 -0 -0 -17 -70 -66
-0 -0 -0 -0 -0 -0 -0 -0 -0 -0 -0 -0 -0 -0 -0 -0 -0 -0 -0 -0 -0 -0 -0 -0 -0 -0 -0 -0 -0 -0 -0 -0 -0 -0 -0 -0 -0 -0 -0 -0 -0 -0 -29 -77
-0 -0 -0 -0 -0 -0 -0 -0 -0 -0 -0 -0 -0 -0 -0 -0 -0 -0 -0 -0 -0 -0 -0 -0 -0 -0 -0 -0 -0 -0 -0 -0 -0 -0 -0 -0 -0 -0 -0 -0 -0 -0 -0 -0
-0 -0 -0 -0 -0 -0 -0 -0 -0 -0 -0 -0 -0 -0 -0 -0 -0 -0 -0 -0 -0 -0 -0 -0 -0 -0 -0 -0 -0 -0 -0 -0 -0 -0 -0 -0 -0 -0 -0 -0 -0 -0 -0 -0
-0 -0 -0 -0 -0 -0 -0 -0 -0 -0 -0 -0 -0 -0 -0 -0 -0 -0 -0 -0 -0 -0 -0 -0 -0 -0 -0 -0 -0 -0 -0 -0 -0 -0 -0 -0 -0 -0 -0 -0 -0 -0 -0 -0
-0 -0 -0 -0 -0 -0 -0 -0 -0 -0 -0 -0 -0 -0 -0 -0 -0 -0 -0 -0 -0 -0 -0 -0 -0 -0 -0 -0 -0 -0 -0 -0 -0 -0 -0 -24 -100 -0 -0 -0 -0 -0 -0 -0
-0 -0 -0 -0 -0 -0 -0 -0 -0 -0 -0 -0 -0 -0 -0 -0 -0 -0 -0 -0 -0 -0 -0 -0 -0 -0 -0 -0 -0 -0 -0 -0 -0 -0 -0 -85 -86 -123 -95 -0 -0 -0 -0 -0
-0 -0 -0 -0 -0 -0 -0 -0 -0 -0 -0 -0 -0 -0 -0 -0 -0 -0 -0 -0 -0 -0 -0 -0 -0 -0 -0 -0 -0 -0 -0 -0 -0 -0 -0 -31 -95 -0 -0 -0 -0 -0 -0 -0
-0 -0 -0 -0 -0 -0 -0 -0 -0 -0 -0 -0 -0 -0 -0 -0 -0 -0 -0 -0 -0 -0 -0 -0 -0 -0 -0 -0 -0 -0 -0 -0 -0 -0 -0 -46 -6 -0 -92 -0 -0 -0 -0 -0
-0 -0 -0 -0 -0 -0 -0 -0 -0 -0 -0 -0 -0 -0 -0 -0 -0 -0 -0 -0 -0 -0 -0 -0 -0 -0 -0 -0 -0 -0 -0 -0 -0 -0 -0 -0 -0 -0 -0 -0 -0 -0 -0 -0
-0 -0 -0 -0 -0 -0 -0 -0 -0 -0 -0 -0 -0 -0 -0 -0 -0 -0 -0 -0 -0 -0 -0 -0 -0 -0 -0 -0 -0 -0 -0 -0 -0 -0 -0 -0 -0 -0 -48 -25 -0 -0 -0 -0
-0 -0 -0 -0 -0 -0 -0 -0 -0 -0 -0 -0 -0 -0 -0 -0 -0 -0 -0 -0 -0 -0 -0 -0 -0 -0 -0 -0 -0 -0 -0 -0 -0 -0 -0 -0 -0 -70 -36 -0 -0 -0 -0 -0
-0 -0 -0 -0 -0 -0 -0 -0 -0 -0 -0 -0 -0 -0 -0 -0 -0 -0 -0 -0 -0 -0 -0 -0 -0 -0 -0 -0 -0 -0 -0 -0 -0 -0 -0 -0 -0 -2 -0 -0 -0 -0 -0 -0
-0 -0 -0 -0 -0 -0 -0 -0 -0 -0 -0 -0 -0 -0 -0 -0 -0 -0 -0 -0 -0 -0 -0 -0 -0 -0 -0 -0 -0 -0 -0 -0 -0 -0 -0 -0 -0 -7 -0 -0 -0 -0 -0 -0
-0 -0 -0 -0 -0 -0 -0 -0 -0 -0 -0 -0 -0 -0 -0 -0 -0 -0 -0 -0 -0 -0 -0 -0 -0 -0 -0 -0 -0 -0 -0 -0 -0 -0 -0 -0 -0 -0 -0 -0 -0 -0 -0 -0
-0 -0 -0 -0 -0 -0 -0 -0 -0 -0 -0 -0 -0 -0 -0 -0 -0 -240 -0 -0 -0 -0 -0 -0 -0 -0 -0 -0 -0 -0 -0 -0 -0 -0 -0 -0 -0 -0 -0 -0 -0 -0 -0 -0
-0 -0 -0 -0 -0 -17 -0 -0 -0 -0 -0 -0 -0 -0 -0 -0 -0 -158 -0 -0 -0 -0 -0 -0 -0 -0 -0 -0 -0 -0 -0 -0 -0 -0 -0 -0 -0 -0 -0 -0 -0 -0 -0 -0
-0 -0 -0 -0 -0 -72 -0 -0 -88 -0 -0 -0 -0 -0 -0 -0 -0 -0 -0 -0 -0 -0 -0 -0 -0 -0 -0 -0 -0 -0 -0 -0 -0 -0 -0 -0 -0 -0 -0 -0 -0 -0 -0 -0
-0 -0 -0 -0 -0 -0 -0 -0 -0 -0 -0 -0 -0 -0 -0 -0 -0 -0 -0 -0 -0 -0 -0 -0 -0 -0 -0 -0 -0 -0 -0 -0 -0 -0 -0 -0 -0 -0 -0 -0 -0 -0 -0 -0
-0 -0 -0 -0 -0 -0 -0 -0 -0 -0 -0 -0 -0 -0 -0 -0 -0 -0 -0 -0 -0 -0 -0 -0 -0 -0 -0 -0 -0 -0 -0 -0 -0 -0 -0 -0 -0 -0 -495 -209 -0 -0 -0 -0
-0 -0 -0 -0 -0 -0 -0 -0 -0 -0 -0 -0 -0 -0 -0 -0 -0 -0 -0 -0 -0 -0 -0 -0 -0 -0 -0 -0 -0 -0 -0 -0 -0 -0 -0 -0 -0 -0 -144 -539 -345 -0 -0 -0
-9 -2 -0 -0 -0 -0 -0 -0 -0 -0 -0 -0 -0 -0 -0 -0 -0 -0 -0 -0 -0 -239 -0 -0 -0 -0 -0 -0 -0 -0 -0 -0 -0 -0 -0 -0 -0 -0 -0 -0 -0 -0 -0 -0
Wind_Speed
14 12 16 26 23 14 8 6 9 20 24 5 12 15 23 13 10 13 10 10 10 9 6 8 10 10 9 8 9 8 7 6 3 1 1 1 3 2 3 3 6 6 5 5
8 24 23 15 14 12 12 14 18 21 23 6 17 18 22 8 7 10 13 11 7 7 10 11 11 8 8 9 8 8 7 6 4 2 2 2 2 3 3 1 3 4 5 6
22 8 18 16 14 13 16 17 17 18 20 15 10 15 10 5 3 3 7 4 7 16 16 14 13 10 9 9 9 8 8 7 4 3 2 1 2 2 1 1 3 2 2 5
19 21 16 21 18 17 20 16 19 15 12 9 6 8 6 6 6 5 8 7 10 14 12 14 13 10 10 8 8 8 7 7 4 5 2 3 2 2 1 1 2 0 1 2
16 21 26 21 23 21 19 17 18 21 14 8 22 4 9 6 6 9 9 5 11 17 19 17 14 13 7 8 8 7 8 6 6 5 3 3 1 1 1 1 2 0 1 0
26 6 20 23 18 22 22 10 12 12 8 12 15 7 14 6 9 6 2 6 10 9 9 9 11 10 8 7 7 7 7 5 5 4 4 5 4 4 4 1 1 1 1 1
14 24 17 15 21 19 13 10 5 3 4 12 10 6 12 7 8 8 9 8 8 9 12 15 14 9 8 8 8 7 7 5 5 4 6 6 6 6 6 2 1 1 2 2
18 13 26 20 20 18 20 14 9 8 6 4 7 6 12 9 5 7 7 10 10 9 11 13 12 10 9 9 9 8 7 5 4 5 6 4 6 4 4 3 2 2 2 3
16 17 9 22 18 20 14 15 20 4 4 2 4 7 10 7 6 6 10 12 11 11 12 14 11 9 9 8 9 9 8 6 4 6 6 4 5 6 5 4 4 3 3 2
5 4 15 16 15 24 26 6 7 2 10 6 4 4 6 0 7 6 8 10 8 8 11 12 11 9 7 8 7 7 7 8 6 6 6 5 5 5 5 4 5 5 3 2
9 4 6 14 22 27 10 10 6 5 7 10 3 9 8 13 11 16 13 13 14 14 15 13 10 9 9 8 8 7 7 7 6 5 4 5 5 5 5 4 4 5 4 4
24 5 11 22 4 16 14 15 10 9 5 2 7 11 4 11 15 17 12 13 11 12 13 12 11 9 9 9 7 8 7 7 7 5 4 5 6 5 6 5 5 4 5 4
10 16 6 8 2 7 16 15 8 5 5 9 8 9 3 5 12 13 15 10 11 12 12 11 9 10 10 8 7 7 7 7 6 5 6 5 6 6 6 5 5 5 6 6
10 6 27 15 12 6 6 18 13 9 6 7 9 5 3 2 14 9 11 14 16 17 16 14 11 10 10 10 8 7 7 7 7 7 6 7 6 6 5 5 5 6 5 6
10 13 21 29 16 3 6 16 17 17 13 12 8 10 8 10 16 17 15 13 15 15 16 16 14 12 10 8 8 7 7 7 7 7 7 7 6 5 6 6 5 6 5 5
10 9 11 22 28 26 17 13 22 16 8 9 12 9 8 16 8 9 15 17 17 18 18 17 16 14 13 12 11 9 7 8 7 8 7 7 4 6 6 7 6 6 5 4
5 6 7 20 16 18 18 19 18 17 14 14 11 8 8 8 15 17 15 19 20 19 19 18 18 16 14 13 13 11 8 8 9 8 7 7 5 6 7 7 5 7 6 5
9 4 4 7 8 8 7 11 15 22 18 10 5 10 12 13 15 18 20 21 18 19 19 18 16 15 14 12 12 11 9 11 11 8 8 7 6 6 7 7 7 5 5 6
18 7 6 4 10 5 3 5 11 9 6 9 17 10 11 7 8 5 17 20 21 20 19 18 17 17 14 14 13 13 11 12 12 11 9 7 7 6 7 7 8 6 6 4
14 15 3 5 8 7 2 9 10 8 13 10 12 12 10 10 8 7 16 15 15 16 17 17 16 15 15 15 13 14 13 13 14 12 12 8 8 7 8 8 8 5 5 6
7 3 12 5 4 3 16 23 0 11 6 16 13 14 11 9 9 10 19 14 15 17 17 14 16 18 19 15 15 14 14 15 14 14 12 9 8 9 8 7 5 7 6 6
5 6 3 5 1 5 25 8 11 10 16 18 8 10 12 10 8 9 19 18 17 17 12 16 16 15 15 16 16 15 16 15 11 13 13 11 9 9 7 10 5 6 7 7
3 5 4 5 1 6 6 6 4 9 13 18 18 18 14 11 9 12 15 16 17 19 17 17 17 15 13 17 18 17 15 14 13 11 13 12 10 8 10 11 7 5 6 6
3 7 4 9 2 16 9 9 12 16 18 19 20 18 8 12 11 9 13 15 17 16 16 16 15 16 16 15 17 17 15 15 14 12 11 10 11 9 10 9 9 8 6 5
3 4 6 7 9 18 2 15 18 21 21 23 25 21 17 10 10 10 9 14 15 16 15 16 16 16 17 17 16 14 15 16 15 11 10 11 10 12 10 9 9 10 9 10
6 4 3 4 12 6 14 13 15 18 24 24 24 24 22 12 9 8 10 13 14 16 15 15 16 16 16 17 16 15 16 15 15 11 10 10 10 9 10 9 4 9 2 11
Wind_Direction
201 207 212 216 217 229 241 236 246 261 268 277 266 269 270 255 238 217 218 233 231 200 146 140 144 144 139 130 128 148 152 163 139 144 283 292 248 263 253 198 215 224 227 228
208 221 217 223 224 216 229 240 249 272 270 260 274 281 287 251 224 212 212 234 218 137 144 140 152 154 144 145 152 157 172 159 172 150 205 191 228 262 239 242 252 239 221 213
211 228 203 210 222 226 226 229 242 243 276 279 276 279 266 292 226 240 275 263 146 166 158 159 165 159 142 149 165 169 176 166 163 149 114 43 15 302 356 273 260 244 200 171
234 221 202 211 221 214 234 226 241 251 255 257 137 280 277 237 259 246 261 212 182 173 163 160 160 156 155 169 166 163 167 158 154 155 132 173 191 254 256 235 257 209 139 169
209 194 216 225 215 216 227 222 233 244 247 260 281 297 266 271 268 266 287 219 172 177 167 163 162 155 164 155 160 164 151 153 165 178 137 144 194 257 106 76 106 63 347 139
218 198 209 219 221 220 232 238 238 256 241 253 242 214 267 220 225 251 228 195 178 154 138 125 139 149 150 149 144 148 149 160 189 187 159 141 132 124 101 119 108 300 57 66
214 223 238 202 216 229 211 199 250 295 196 239 209 182 238 227 229 222 193 198 158 147 142 146 153 151 151 152 153 147 148 175 211 139 162 148 149 122 114 150 133 83 83 76
209 227 210 217 212 212 220 209 200 184 219 239 202 228 260 225 253 208 153 157 137 139 146 151 156 160 157 156 157 152 161 190 193 151 174 169 145 126 132 150 136 95 105 123
193 228 244 205 210 204 221 211 223 198 315 129 214 283 321 267 149 135 132 144 149 152 151 149 161 159 153 155 166 163 171 199 184 170 165 176 156 139 151 128 109 114 129 133
232 219 225 203 194 230 218 140 229 304 201 212 266 247 232 157 149 148 155 154 144 138 142 157 162 158 159 164 164 169 177 179 184 198 152 191 163 144 154 136 133 146 139 124
215 132 300 207 202 208 195 198 200 171 163 186 208 261 198 203 178 172 173 164 160 163 159 162 161 166 161 157 159 168 170 169 173 201 163 178 146 148 147 152 159 154 145 151
209 174 237 241 298 199 208 203 177 208 234 165 155 258 243 217 171 164 169 169 169 157 158 161 162 158 154 163 162 162 161 163 172 172 146 142 130 137 140 154 163 147 154 145
236 216 262 326 259 240 202 199 175 141 118 188 163 258 4 125 148 170 157 164 158 152 153 157 152 163 163 167 169 168 163 180 167 161 123 134 133 134 136 140 144 129 132 134
319 211 206 219 220 162 197 197 187 143 139 164 196 205 201 222 151 168 168 161 164 166 164 165 163 167 165 171 173 175 175 170 166 151 128 138 164 148 137 132 133 134 134 128
6 219 204 222 234 236 216 211 188 187 179 170 201 188 216 194 175 180 169 159 157 165 169 174 171 172 169 170 175 180 174 154 161 146 139 162 180 136 140 138 139 131 133 137
338 299 204 221 224 236 247 232 193 189 174 140 176 209 200 189 162 142 170 163 171 176 177 179 178 173 175 175 180 182 170 157 155 151 159 171 175 157 169 136 140 124 134 127
275 334 338 222 217 230 234 233 207 180 174 148 182 201 164 143 174 175 173 176 179 179 179 178 183 182 177 175 176 180 166 151 157 157 166 163 157 142 164 141 142 130 120 110
240 324 280 229 206 208 231 196 196 197 179 179 149 175 166 185 188 189 181 176 184 180 179 185 182 182 179 169 173 171 145 160 161 163 168 168 155 153 132 136 156 128 128 133
205 199 275 196 195 249 234 229 174 152 237 177 180 196 189 157 110 183 188 182 184 184 182 183 183 181 172 169 171 164 156 158 164 171 170 175 160 162 133 132 141 135 125 124
171 202 208 327 139 188 193 318 198 137 223 189 171 185 184 137 144 223 190 194 193 182 181 179 178 173 171 174 163 161 166 162 170 173 177 174 163 160 154 151 144 150 145 147
309 151 223 234 264 66 348 323 227 154 282 323 186 189 166 178 180 188 180 185 189 181 180 175 165 172 181 166 160 167 169 178 174 174 175 171 171 164 164 161 147 142 145 139
312 305 4 324 195 62 348 358 53 309 310 345 272 174 179 185 178 157 178 184 180 182 169 171 174 175 171 168 166 166 177 179 169 165 172 178 178 170 162 161 160 151 136 143
208 7 316 28 296 352 322 64 359 310 335 3 350 314 161 158 165 165 173 181 179 175 177 176 175 169 170 173 173 171 182 170 174 163 172 176 173 165 161 165 163 149 158 147
340 9 299 338 215 338 301 354 339 357 355 351 357 341 286 158 158 161 159 166 172 171 174 173 166 170 171 180 180 181 166 174 171 173 171 165 165 164 166 173 168 169 171 163
229 298 331 280 287 328 134 359 344 346 347 1 358 354 343 331 162 154 156 162 164 168 171 167 173 175 179 177 181 174 173 172 175 170 168 167 169 171 170 173 175 180 194 181
170 178 74 282 290 247 282 322 340 344 354 356 350 339 342 348 296 155 169 169 162 166 170 173 178 176 177 178 179 176 176 175 171 168 168 171 168 169 170 161 136 34 143 189